date,time,SUV Intensity [MED/Hr],UV Index,Daily total [MED],Since Last [MED]
03/08/2023,23:59:43,0.000,0.0,7.664,7.664
04/08/2023,00:00:42,0.000,0.0,0.0,-7.664
04/08/2023,00:01:42,0.000,0.0,0.0,0.0
04/08/2023,00:02:42,0.000,0.0,0.0,0.0
04/08/2023,00:03:42,0.000,0.0,0.0,0.0
04/08/2023,00:04:43,0.000,0.0,0.0,0.0
04/08/2023,00:05:42,-0.001,0.0,0.0,0.0
04/08/2023,00:06:42,0.001,0.0,0.0,0.0
04/08/2023,00:07:42,0.000,0.0,0.0,0.0
04/08/2023,00:08:42,-0.000,0.0,0.0,0.0
04/08/2023,00:09:43,0.001,0.0,0.0,0.0
04/08/2023,00:10:42,0.000,0.0,0.0,0.0
04/08/2023,00:11:42,-0.001,0.0,0.0,0.0
04/08/2023,00:12:43,0.000,0.0,0.0,0.0
04/08/2023,00:13:43,0.000,0.0,0.0,0.0
04/08/2023,00:14:43,0.000,0.0,0.0,0.0
04/08/2023,00:15:42,0.000,0.0,0.0,0.0
04/08/2023,00:16:43,0.000,0.0,0.0,0.0
04/08/2023,00:17:43,0.000,0.0,0.0,0.0
04/08/2023,00:18:43,-0.001,0.0,0.0,0.0
04/08/2023,00:19:43,0.000,0.0,0.0,0.0
04/08/2023,00:20:43,0.000,0.0,0.0,0.0
04/08/2023,00:21:43,-0.001,0.0,0.0,0.0
04/08/2023,00:22:43,0.001,0.0,0.0,0.0
04/08/2023,00:23:43,0.000,0.0,0.0,0.0
04/08/2023,00:24:43,-0.000,0.0,0.0,0.0
04/08/2023,00:25:42,0.000,0.0,0.0,0.0
04/08/2023,00:26:42,0.000,0.0,0.0,0.0
04/08/2023,00:27:43,-0.000,0.0,0.0,0.0
04/08/2023,00:28:42,0.000,0.0,0.0,0.0
04/08/2023,00:29:42,0.001,0.0,0.0,0.0
04/08/2023,00:30:43,0.000,0.0,0.0,0.0
04/08/2023,00:31:43,-0.001,0.0,0.0,0.0
04/08/2023,00:32:42,0.000,0.0,0.0,0.0
04/08/2023,00:33:43,-0.001,0.0,0.0,0.0
04/08/2023,00:34:43,0.000,0.0,0.0,0.0
04/08/2023,00:35:43,0.000,0.0,0.0,0.0
04/08/2023,00:36:43,0.000,0.0,0.0,0.0
04/08/2023,00:37:43,-0.000,0.0,0.0,0.0
04/08/2023,00:38:43,0.000,0.0,0.0,0.0
04/08/2023,00:39:42,-0.001,0.0,0.0,0.0
04/08/2023,00:40:42,-0.000,0.0,0.0,0.0
04/08/2023,00:41:43,0.000,0.0,0.0,0.0
04/08/2023,00:42:43,0.000,0.0,0.0,0.0
04/08/2023,00:43:43,0.000,0.0,0.0,0.0
04/08/2023,00:44:43,0.001,0.0,0.0,0.0
04/08/2023,00:45:43,-0.000,0.0,0.0,0.0
04/08/2023,00:46:43,0.000,0.0,0.0,0.0
04/08/2023,00:47:42,0.000,0.0,0.0,0.0
04/08/2023,00:48:42,0.000,0.0,0.0,0.0
04/08/2023,00:49:43,0.000,0.0,0.0,0.0
04/08/2023,00:50:43,-0.000,0.0,0.0,0.0
04/08/2023,00:51:42,0.001,0.0,0.0,0.0
04/08/2023,00:52:43,0.001,0.0,0.0,0.0
04/08/2023,00:53:43,0.000,0.0,0.0,0.0
04/08/2023,00:54:43,0.000,0.0,0.0,0.0
04/08/2023,00:55:42,0.000,0.0,0.0,0.0
04/08/2023,00:56:43,0.000,0.0,0.0,0.0
04/08/2023,00:57:43,-0.001,0.0,0.0,0.0
04/08/2023,00:58:43,0.000,0.0,0.0,0.0
04/08/2023,00:59:43,0.000,0.0,0.0,0.0
04/08/2023,01:00:43,-0.000,0.0,0.0,0.0
04/08/2023,01:01:42,0.000,0.0,0.0,0.0
04/08/2023,01:02:43,0.000,0.0,0.0,0.0
04/08/2023,01:03:43,0.001,0.0,0.0,0.0
04/08/2023,01:04:43,0.001,0.0,0.0,0.0
04/08/2023,01:05:43,0.001,0.0,0.0,0.0
04/08/2023,01:06:43,0.000,0.0,0.0,0.0
04/08/2023,01:07:42,0.000,0.0,0.0,0.0
04/08/2023,01:08:42,0.001,0.0,0.0,0.0
04/08/2023,01:10:12,-0.001,0.0,0.0,0.0
04/08/2023,01:11:44,0.000,0.0,0.0,0.0
04/08/2023,01:12:43,0.000,0.0,0.0,0.0
04/08/2023,01:13:43,0.000,0.0,0.0,0.0
04/08/2023,01:14:42,0.001,0.0,0.0,0.0
04/08/2023,01:15:43,0.001,0.0,0.0,0.0
04/08/2023,01:16:42,0.000,0.0,0.0,0.0
04/08/2023,01:17:42,0.000,0.0,0.0,0.0
04/08/2023,01:18:43,-0.001,0.0,0.0,0.0
04/08/2023,01:19:43,0.001,0.0,0.0,0.0
04/08/2023,01:20:43,0.000,0.0,0.0,0.0
04/08/2023,01:21:42,0.000,0.0,0.0,0.0
04/08/2023,01:22:42,0.001,0.0,0.0,0.0
04/08/2023,01:23:43,0.000,0.0,0.0,0.0
04/08/2023,01:24:43,0.001,0.0,0.0,0.0
04/08/2023,01:25:43,0.000,0.0,0.0,0.0
04/08/2023,01:26:42,0.000,0.0,0.0,0.0
04/08/2023,01:27:42,-0.000,0.0,0.0,0.0
04/08/2023,01:28:43,0.001,0.0,0.0,0.0
04/08/2023,01:29:43,0.001,0.0,0.0,0.0
04/08/2023,01:30:43,0.000,0.0,0.0,0.0
04/08/2023,01:31:42,-0.001,0.0,0.0,0.0
04/08/2023,01:32:43,0.000,0.0,0.0,0.0
04/08/2023,01:33:43,0.000,0.0,0.0,0.0
04/08/2023,01:34:43,0.000,0.0,0.0,0.0
04/08/2023,01:35:42,0.000,0.0,0.0,0.0
04/08/2023,01:36:42,0.000,0.0,0.0,0.0
04/08/2023,01:37:43,0.000,0.0,0.0,0.0
04/08/2023,01:38:43,0.001,0.0,0.0,0.0
04/08/2023,01:39:43,0.000,0.0,0.0,0.0
04/08/2023,01:40:42,0.001,0.0,0.0,0.0
04/08/2023,01:41:42,0.001,0.0,0.0,0.0
04/08/2023,01:42:43,0.000,0.0,0.0,0.0
04/08/2023,01:43:42,0.000,0.0,0.0,0.0
04/08/2023,01:44:42,0.000,0.0,0.0,0.0
04/08/2023,01:45:43,0.000,0.0,0.0,0.0
04/08/2023,01:46:43,-0.001,0.0,0.0,0.0
04/08/2023,01:47:43,-0.001,0.0,0.0,0.0
04/08/2023,01:48:42,0.000,0.0,0.0,0.0
04/08/2023,01:49:43,-0.000,0.0,0.0,0.0
04/08/2023,01:50:43,0.000,0.0,0.0,0.0
04/08/2023,01:51:42,0.001,0.0,0.0,0.0
04/08/2023,01:52:43,0.001,0.0,0.0,0.0
04/08/2023,01:53:43,0.000,0.0,0.0,0.0
04/08/2023,01:54:43,0.000,0.0,0.0,0.0
04/08/2023,01:55:43,0.001,0.0,0.0,0.0
04/08/2023,01:56:43,-0.001,0.0,0.0,0.0
04/08/2023,01:57:43,0.001,0.0,0.0,0.0
04/08/2023,01:58:42,0.000,0.0,0.0,0.0
04/08/2023,01:59:43,0.000,0.0,0.0,0.0
04/08/2023,02:00:42,0.000,0.0,0.0,0.0
04/08/2023,02:01:42,0.000,0.0,0.0,0.0
04/08/2023,02:02:43,-0.000,0.0,0.0,0.0
04/08/2023,02:03:42,0.000,0.0,0.0,0.0
04/08/2023,02:04:43,0.000,0.0,0.0,0.0
04/08/2023,02:05:42,0.000,0.0,0.0,0.0
04/08/2023,02:06:41,0.000,0.0,0.0,0.0
04/08/2023,02:07:41,0.000,0.0,0.0,0.0
04/08/2023,02:08:40,0.000,0.0,0.0,0.0
04/08/2023,02:09:41,-0.000,0.0,0.0,0.0
04/08/2023,02:10:43,0.000,0.0,0.0,0.0
04/08/2023,02:11:42,0.001,0.0,0.0,0.0
04/08/2023,02:12:43,0.000,0.0,0.0,0.0
04/08/2023,02:13:43,0.000,0.0,0.0,0.0
04/08/2023,02:14:43,-0.000,0.0,0.0,0.0
04/08/2023,02:15:43,0.000,0.0,0.0,0.0
04/08/2023,02:16:43,0.000,0.0,0.0,0.0
04/08/2023,02:17:43,0.001,0.0,0.0,0.0
04/08/2023,02:18:43,0.000,0.0,0.0,0.0
04/08/2023,02:19:43,0.000,0.0,0.0,0.0
04/08/2023,02:20:42,0.000,0.0,0.0,0.0
04/08/2023,02:21:42,0.001,0.0,0.0,0.0
04/08/2023,02:22:43,-0.000,0.0,0.0,0.0
04/08/2023,02:23:43,0.000,0.0,0.0,0.0
04/08/2023,02:24:42,0.000,0.0,0.0,0.0
04/08/2023,02:25:43,0.001,0.0,0.0,0.0
04/08/2023,02:26:43,-0.000,0.0,0.0,0.0
04/08/2023,02:27:42,0.000,0.0,0.0,0.0
04/08/2023,02:28:43,0.000,0.0,0.0,0.0
04/08/2023,02:29:43,0.001,0.0,0.0,0.0
04/08/2023,02:30:42,0.000,0.0,0.0,0.0
04/08/2023,02:31:43,0.000,0.0,0.0,0.0
04/08/2023,02:32:43,0.000,0.0,0.0,0.0
04/08/2023,02:33:43,0.000,0.0,0.0,0.0
04/08/2023,02:34:43,0.001,0.0,0.0,0.0
04/08/2023,02:35:43,-0.001,0.0,0.0,0.0
04/08/2023,02:36:43,0.000,0.0,0.0,0.0
04/08/2023,02:37:43,0.000,0.0,0.0,0.0
04/08/2023,02:38:43,0.000,0.0,0.0,0.0
04/08/2023,02:39:43,-0.001,0.0,0.0,0.0
04/08/2023,02:40:43,0.000,0.0,0.0,0.0
04/08/2023,02:41:43,0.000,0.0,0.0,0.0
04/08/2023,02:42:43,0.000,0.0,0.0,0.0
04/08/2023,02:43:43,0.001,0.0,0.0,0.0
04/08/2023,02:44:43,-0.000,0.0,0.0,0.0
04/08/2023,02:45:43,0.000,0.0,0.0,0.0
04/08/2023,02:46:43,0.001,0.0,0.0,0.0
04/08/2023,02:47:43,0.000,0.0,0.0,0.0
04/08/2023,02:48:43,0.001,0.0,0.0,0.0
04/08/2023,02:49:43,-0.000,0.0,0.0,0.0
04/08/2023,02:50:43,0.000,0.0,0.0,0.0
04/08/2023,02:51:43,-0.001,0.0,0.0,0.0
04/08/2023,02:52:43,0.000,0.0,0.0,0.0
04/08/2023,02:53:43,0.000,0.0,0.0,0.0
04/08/2023,02:54:43,0.001,0.0,0.0,0.0
04/08/2023,02:55:42,0.001,0.0,0.0,0.0
04/08/2023,02:56:43,0.000,0.0,0.0,0.0
04/08/2023,02:57:43,-0.000,0.0,0.0,0.0
04/08/2023,02:58:43,0.001,0.0,0.0,0.0
04/08/2023,02:59:43,0.000,0.0,0.0,0.0
04/08/2023,03:00:43,0.001,0.0,0.0,0.0
04/08/2023,03:01:43,0.001,0.0,0.0,0.0
04/08/2023,03:02:42,0.001,0.0,0.0,0.0
04/08/2023,03:03:42,0.002,0.0,0.0,0.0
04/08/2023,03:04:43,0.000,0.0,0.0,0.0
04/08/2023,03:05:43,0.001,0.0,0.0,0.0
04/08/2023,03:06:43,-0.000,0.0,0.0,0.0
04/08/2023,03:07:43,-0.000,0.0,0.0,0.0
04/08/2023,03:08:43,-0.000,0.0,0.0,0.0
04/08/2023,03:09:43,0.001,0.0,0.0,0.0
04/08/2023,03:10:43,0.000,0.0,0.0,0.0
04/08/2023,03:11:43,0.001,0.0,0.0,0.0
04/08/2023,03:12:43,0.000,0.0,0.0,0.0
04/08/2023,03:13:43,0.001,0.0,0.0,0.0
04/08/2023,03:14:43,0.001,0.0,0.0,0.0
04/08/2023,03:15:42,0.001,0.0,0.0,0.0
04/08/2023,03:16:43,0.001,0.0,0.0,0.0
04/08/2023,03:17:43,-0.001,0.0,0.0,0.0
04/08/2023,03:18:43,-0.000,0.0,0.0,0.0
04/08/2023,03:19:43,-0.001,0.0,0.0,0.0
04/08/2023,03:20:43,0.000,0.0,0.0,0.0
04/08/2023,03:21:43,0.001,0.0,0.0,0.0
04/08/2023,03:22:43,0.001,0.0,0.0,0.0
04/08/2023,03:23:43,0.001,0.0,0.0,0.0
04/08/2023,03:24:42,0.000,0.0,0.0,0.0
04/08/2023,03:25:42,0.000,0.0,0.0,0.0
04/08/2023,03:26:43,0.000,0.0,0.0,0.0
04/08/2023,03:27:43,0.001,0.0,0.0,0.0
04/08/2023,03:28:43,0.000,0.0,0.0,0.0
04/08/2023,03:29:43,-0.000,0.0,0.0,0.0
04/08/2023,03:30:43,-0.000,0.0,0.0,0.0
04/08/2023,03:31:43,0.000,0.0,0.0,0.0
04/08/2023,03:32:43,0.001,0.0,0.0,0.0
04/08/2023,03:33:43,-0.000,0.0,0.0,0.0
04/08/2023,03:34:43,0.000,0.0,0.0,0.0
04/08/2023,03:35:43,0.000,0.0,0.0,0.0
04/08/2023,03:36:43,0.001,0.0,0.0,0.0
04/08/2023,03:37:43,0.000,0.0,0.0,0.0
04/08/2023,03:38:43,0.001,0.0,0.0,0.0
04/08/2023,03:39:43,0.000,0.0,0.0,0.0
04/08/2023,03:40:43,0.000,0.0,0.0,0.0
04/08/2023,03:41:43,0.001,0.0,0.0,0.0
04/08/2023,03:42:43,0.000,0.0,0.0,0.0
04/08/2023,03:43:43,0.000,0.0,0.0,0.0
04/08/2023,03:44:43,0.000,0.0,0.0,0.0
04/08/2023,03:45:43,0.000,0.0,0.0,0.0
04/08/2023,03:46:43,-0.000,0.0,0.0,0.0
04/08/2023,03:47:43,0.000,0.0,0.0,0.0
04/08/2023,03:48:43,0.000,0.0,0.0,0.0
04/08/2023,03:49:43,0.001,0.0,0.0,0.0
04/08/2023,03:50:43,0.001,0.0,0.0,0.0
04/08/2023,03:51:43,0.000,0.0,0.0,0.0
04/08/2023,03:52:43,-0.000,0.0,0.0,0.0
04/08/2023,03:53:43,0.000,0.0,0.0,0.0
04/08/2023,03:54:43,0.000,0.0,0.0,0.0
04/08/2023,03:55:43,0.001,0.0,0.0,0.0
04/08/2023,03:56:42,0.001,0.0,0.0,0.0
04/08/2023,03:57:43,0.001,0.0,0.0,0.0
04/08/2023,03:58:43,0.000,0.0,0.0,0.0
04/08/2023,03:59:43,0.000,0.0,0.0,0.0
04/08/2023,04:00:43,0.000,0.0,0.0,0.0
04/08/2023,04:01:43,0.000,0.0,0.0,0.0
04/08/2023,04:02:43,0.001,0.0,0.0,0.0
04/08/2023,04:03:43,0.000,0.0,0.0,0.0
04/08/2023,04:04:42,0.001,0.0,0.0,0.0
04/08/2023,04:05:43,0.000,0.0,0.0,0.0
04/08/2023,04:06:43,0.000,0.0,0.0,0.0
04/08/2023,04:07:43,0.000,0.0,0.0,0.0
04/08/2023,04:08:43,0.001,0.0,0.0,0.0
04/08/2023,04:09:43,-0.000,0.0,0.0,0.0
04/08/2023,04:10:43,0.000,0.0,0.0,0.0
04/08/2023,04:11:43,-0.000,0.0,0.0,0.0
04/08/2023,04:12:43,0.001,0.0,0.0,0.0
04/08/2023,04:13:43,0.000,0.0,0.0,0.0
04/08/2023,04:14:43,0.000,0.0,0.0,0.0
04/08/2023,04:15:43,0.000,0.0,0.0,0.0
04/08/2023,04:16:43,0.000,0.0,0.0,0.0
04/08/2023,04:17:43,0.000,0.0,0.0,0.0
04/08/2023,04:18:43,0.001,0.0,0.0,0.0
04/08/2023,04:19:43,0.001,0.0,0.0,0.0
04/08/2023,04:20:43,0.001,0.0,0.0,0.0
04/08/2023,04:21:41,0.001,0.0,0.0,0.0
04/08/2023,04:22:41,0.001,0.0,0.0,0.0
04/08/2023,04:23:43,0.000,0.0,0.0,0.0
04/08/2023,04:24:43,0.001,0.0,0.0,0.0
04/08/2023,04:25:43,0.001,0.0,0.0,0.0
04/08/2023,04:26:43,0.001,0.0,0.0,0.0
04/08/2023,04:27:42,0.001,0.0,0.0,0.0
04/08/2023,04:28:43,0.000,0.0,0.0,0.0
04/08/2023,04:29:43,0.001,0.0,0.0,0.0
04/08/2023,04:30:43,0.001,0.0,0.0,0.0
04/08/2023,04:31:43,0.001,0.0,0.0,0.0
04/08/2023,04:32:43,0.001,0.0,0.0,0.0
04/08/2023,04:33:43,0.000,0.0,0.0,0.0
04/08/2023,04:34:41,0.001,0.0,0.0,0.0
04/08/2023,04:35:41,0.001,0.0,0.0,0.0
04/08/2023,04:36:43,0.002,0.0,0.0,0.0
04/08/2023,04:37:43,0.003,0.0,0.0,0.0
04/08/2023,04:38:43,0.002,0.0,0.0,0.0
04/08/2023,04:39:43,0.002,0.0,0.0,0.0
04/08/2023,04:40:43,0.002,0.0,0.0,0.0
04/08/2023,04:41:43,0.002,0.0,0.0,0.0
04/08/2023,04:42:43,0.001,0.0,0.0,0.0
04/08/2023,04:43:43,0.003,0.0,0.0,0.0
04/08/2023,04:44:43,0.003,0.0,0.0,0.0
04/08/2023,04:45:43,0.003,0.0,0.0,0.0
04/08/2023,04:46:43,0.004,0.0,0.0,0.0
04/08/2023,04:47:42,0.003,0.0,0.0,0.0
04/08/2023,04:48:43,0.003,0.0,0.0,0.0
04/08/2023,04:49:43,0.004,0.0,0.0,0.0
04/08/2023,04:50:43,0.004,0.0,0.0,0.0
04/08/2023,04:51:43,0.003,0.0,0.0,0.0
04/08/2023,04:52:43,0.004,0.0,0.0,0.0
04/08/2023,04:53:43,0.004,0.0,0.0,0.0
04/08/2023,04:54:44,0.004,0.0,0.0,0.0
04/08/2023,04:55:43,0.004,0.0,0.0,0.0
04/08/2023,04:56:43,0.004,0.0,0.0,0.0
04/08/2023,04:57:43,0.005,0.0,0.0,0.0
04/08/2023,04:58:43,0.006,0.0,0.0,0.0
04/08/2023,04:59:43,0.006,0.0,0.0,0.0
04/08/2023,05:00:43,0.005,0.0,0.0,0.0
04/08/2023,05:01:43,0.006,0.0,0.0,0.0
04/08/2023,05:02:43,0.006,0.0,0.0,0.0
04/08/2023,05:03:43,0.007,0.0,0.0,0.0
04/08/2023,05:04:43,0.007,0.0,0.0,0.0
04/08/2023,05:05:43,0.007,0.0,0.0,0.0
04/08/2023,05:06:43,0.007,0.0,0.0,0.0
04/08/2023,05:07:44,0.008,0.0,0.001,0.001
04/08/2023,05:08:43,0.007,0.0,0.001,0.0
04/08/2023,05:09:43,0.007,0.0,0.001,0.0
04/08/2023,05:10:43,0.008,0.0,0.001,0.0
04/08/2023,05:11:43,0.008,0.0,0.001,0.0
04/08/2023,05:12:44,0.010,0.0,0.001,0.0
04/08/2023,05:13:43,0.009,0.0,0.001,0.0
04/08/2023,05:14:43,0.010,0.0,0.002,0.001
04/08/2023,05:15:43,0.010,0.0,0.002,0.0
04/08/2023,05:16:43,0.012,0.0,0.002,0.0
04/08/2023,05:17:43,0.011,0.0,0.002,0.0
04/08/2023,05:18:43,0.011,0.0,0.002,0.0
04/08/2023,05:19:43,0.012,0.0,0.002,0.0
04/08/2023,05:20:43,0.012,0.0,0.003,0.001
04/08/2023,05:21:43,0.012,0.0,0.003,0.0
04/08/2023,05:22:43,0.014,0.0,0.003,0.0
04/08/2023,05:23:43,0.015,0.0,0.003,0.0
04/08/2023,05:24:43,0.015,0.0,0.004,0.001
04/08/2023,05:25:43,0.015,0.0,0.004,0.0
04/08/2023,05:26:43,0.015,0.0,0.004,0.0
04/08/2023,05:27:43,0.015,0.0,0.004,0.0
04/08/2023,05:28:43,0.016,0.0,0.005,0.001
04/08/2023,05:29:43,0.016,0.0,0.005,0.0
04/08/2023,05:30:44,0.016,0.0,0.005,0.0
04/08/2023,05:31:43,0.014,0.0,0.005,0.0
04/08/2023,05:32:44,0.016,0.0,0.006,0.001
04/08/2023,05:33:45,0.017,0.0,0.006,0.0
04/08/2023,05:34:43,0.018,0.0,0.006,0.0
04/08/2023,05:35:43,0.017,0.0,0.006,0.0
04/08/2023,05:36:41,0.017,0.0,0.007,0.001
04/08/2023,05:37:41,0.017,0.0,0.007,0.0
04/08/2023,05:38:43,0.017,0.0,0.007,0.0
04/08/2023,05:39:44,0.018,0.0,0.008,0.001
04/08/2023,05:40:43,0.018,0.0,0.008,0.0
04/08/2023,05:41:43,0.019,0.0,0.008,0.0
04/08/2023,05:42:43,0.019,0.0,0.009,0.001
04/08/2023,05:43:45,0.020,0.0,0.009,0.0
04/08/2023,05:44:43,0.020,0.0,0.009,0.0
04/08/2023,05:45:43,0.020,0.0,0.01,0.001
04/08/2023,05:46:43,0.019,0.0,0.01,0.0
04/08/2023,05:47:43,0.020,0.0,0.01,0.0
04/08/2023,05:48:43,0.020,0.0,0.011,0.001
04/08/2023,05:49:43,0.021,0.0,0.011,0.0
04/08/2023,05:50:43,0.022,0.0,0.011,0.0
04/08/2023,05:51:44,0.024,0.0,0.012,0.001
04/08/2023,05:52:43,0.025,0.0,0.012,0.0
04/08/2023,05:53:43,0.026,0.0,0.012,0.0
04/08/2023,05:54:43,0.026,0.0,0.013,0.001
04/08/2023,05:55:43,0.026,0.0,0.013,0.0
04/08/2023,05:56:43,0.029,0.0,0.014,0.001
04/08/2023,05:57:43,0.029,0.0,0.014,0.0
04/08/2023,05:58:43,0.029,0.0,0.015,0.001
04/08/2023,05:59:43,0.031,0.0,0.015,0.0
04/08/2023,06:00:43,0.030,0.0,0.016,0.001
04/08/2023,06:01:43,0.029,0.0,0.016,0.0
04/08/2023,06:02:43,0.028,0.0,0.017,0.001
04/08/2023,06:03:43,0.029,0.0,0.017,0.0
04/08/2023,06:04:43,0.029,0.0,0.018,0.001
04/08/2023,06:05:43,0.029,0.0,0.018,0.0
04/08/2023,06:06:43,0.029,0.0,0.019,0.001
04/08/2023,06:07:43,0.027,0.0,0.019,0.0
04/08/2023,06:08:43,0.028,0.0,0.02,0.001
04/08/2023,06:09:43,0.028,0.0,0.02,0.0
04/08/2023,06:10:44,0.029,0.0,0.02,0.0
04/08/2023,06:11:43,0.030,0.0,0.021,0.001
04/08/2023,06:12:43,0.035,0.0,0.022,0.001
04/08/2023,06:13:43,0.037,0.0,0.022,0.0
04/08/2023,06:14:43,0.038,0.0,0.023,0.001
04/08/2023,06:15:44,0.037,0.0,0.023,0.0
04/08/2023,06:16:43,0.038,0.0,0.024,0.001
04/08/2023,06:17:43,0.040,0.0,0.025,0.001
04/08/2023,06:18:43,0.042,0.0,0.025,0.0
04/08/2023,06:19:43,0.045,0.0,0.026,0.001
04/08/2023,06:20:44,0.044,0.0,0.027,0.001
04/08/2023,06:21:43,0.043,0.0,0.028,0.001
04/08/2023,06:22:43,0.040,0.0,0.028,0.0
04/08/2023,06:23:43,0.041,0.0,0.029,0.001
04/08/2023,06:24:43,0.043,0.0,0.03,0.001
04/08/2023,06:25:43,0.043,0.0,0.03,0.0
04/08/2023,06:26:43,0.043,0.0,0.031,0.001
04/08/2023,06:27:43,0.046,0.0,0.032,0.001
04/08/2023,06:28:44,0.048,0.0,0.033,0.001
04/08/2023,06:29:43,0.047,0.0,0.033,0.0
04/08/2023,06:30:43,0.048,0.0,0.034,0.001
04/08/2023,06:31:44,0.047,0.0,0.035,0.001
04/08/2023,06:32:44,0.048,0.0,0.036,0.001
04/08/2023,06:33:43,0.050,0.0,0.037,0.001
04/08/2023,06:34:44,0.050,0.0,0.037,0.0
04/08/2023,06:35:43,0.048,0.0,0.038,0.001
04/08/2023,06:36:43,0.049,0.0,0.039,0.001
04/08/2023,06:37:43,0.051,0.0,0.04,0.001
04/08/2023,06:38:41,0.051,0.0,0.041,0.001
04/08/2023,06:39:42,0.051,0.0,0.041,0.0
04/08/2023,06:40:44,0.054,0.0,0.042,0.001
04/08/2023,06:41:43,0.054,0.0,0.043,0.001
04/08/2023,06:42:43,0.056,0.0,0.044,0.001
04/08/2023,06:43:43,0.056,0.0,0.045,0.001
04/08/2023,06:44:43,0.055,0.0,0.046,0.001
04/08/2023,06:45:43,0.055,0.0,0.047,0.001
04/08/2023,06:46:43,0.057,0.0,0.048,0.001
04/08/2023,06:47:44,0.059,0.0,0.049,0.001
04/08/2023,06:48:43,0.061,0.0,0.05,0.001
04/08/2023,06:49:43,0.062,0.0,0.051,0.001
04/08/2023,06:50:43,0.067,0.0,0.052,0.001
04/08/2023,06:51:43,0.071,0.0,0.053,0.001
04/08/2023,06:52:43,0.075,0.0,0.054,0.001
04/08/2023,06:53:43,0.074,0.0,0.056,0.002
04/08/2023,06:54:44,0.073,0.0,0.057,0.001
04/08/2023,06:55:44,0.074,0.0,0.058,0.001
04/08/2023,06:56:43,0.076,0.0,0.059,0.001
04/08/2023,06:57:43,0.082,0.0,0.061,0.002
04/08/2023,06:58:43,0.089,0.0,0.062,0.001
04/08/2023,06:59:43,0.094,0.0,0.064,0.002
04/08/2023,07:00:44,0.095,0.0,0.065,0.001
04/08/2023,07:01:43,0.098,0.0,0.067,0.002
04/08/2023,07:02:43,0.101,0.0,0.069,0.002
04/08/2023,07:03:43,0.105,0.0,0.07,0.001
04/08/2023,07:04:43,0.113,0.0,0.072,0.002
04/08/2023,07:05:43,0.120,0.0,0.074,0.002
04/08/2023,07:06:44,0.122,0.0,0.076,0.002
04/08/2023,07:07:43,0.119,0.0,0.078,0.002
04/08/2023,07:08:41,0.121,0.0,0.08,0.002
04/08/2023,07:09:42,0.124,0.0,0.082,0.002
04/08/2023,07:10:43,0.121,0.0,0.084,0.002
04/08/2023,07:11:43,0.120,0.0,0.086,0.002
04/08/2023,07:12:43,0.119,0.0,0.088,0.002
04/08/2023,07:13:43,0.118,0.0,0.09,0.002
04/08/2023,07:14:43,0.115,0.0,0.092,0.002
04/08/2023,07:15:44,0.108,0.0,0.094,0.002
04/08/2023,07:16:43,0.107,0.0,0.096,0.002
04/08/2023,07:17:43,0.115,0.0,0.098,0.002
04/08/2023,07:18:43,0.124,0.0,0.1,0.002
04/08/2023,07:19:44,0.123,0.0,0.102,0.002
04/08/2023,07:20:43,0.121,0.0,0.104,0.002
04/08/2023,07:21:44,0.125,0.0,0.106,0.002
04/08/2023,07:22:44,0.130,0.0,0.108,0.002
04/08/2023,07:23:44,0.134,0.0,0.11,0.002
04/08/2023,07:24:43,0.134,0.0,0.112,0.002
04/08/2023,07:25:44,0.127,0.0,0.115,0.003
04/08/2023,07:26:43,0.129,0.0,0.117,0.002
04/08/2023,07:27:43,0.132,0.0,0.119,0.002
04/08/2023,07:28:43,0.130,0.0,0.121,0.002
04/08/2023,07:29:43,0.125,0.0,0.123,0.002
04/08/2023,07:30:43,0.121,0.0,0.125,0.002
04/08/2023,07:31:41,0.121,0.0,0.127,0.002
04/08/2023,07:32:43,0.118,0.0,0.129,0.002
04/08/2023,07:33:43,0.117,0.0,0.131,0.002
04/08/2023,07:34:43,0.115,0.0,0.133,0.002
04/08/2023,07:35:42,0.116,0.0,0.135,0.002
04/08/2023,07:36:41,0.117,0.0,0.137,0.002
04/08/2023,07:37:43,0.118,0.0,0.139,0.002
04/08/2023,07:38:44,0.117,0.0,0.141,0.002
04/08/2023,07:39:43,0.119,0.0,0.143,0.002
04/08/2023,07:40:43,0.119,0.0,0.145,0.002
04/08/2023,07:41:43,0.115,0.0,0.147,0.002
04/08/2023,07:42:43,0.115,0.0,0.149,0.002
04/08/2023,07:43:44,0.114,0.0,0.151,0.002
04/08/2023,07:44:43,0.113,0.0,0.152,0.001
04/08/2023,07:45:43,0.113,0.0,0.154,0.002
04/08/2023,07:46:44,0.115,0.0,0.156,0.002
04/08/2023,07:47:43,0.122,0.0,0.158,0.002
04/08/2023,07:48:43,0.130,0.0,0.16,0.002
04/08/2023,07:49:43,0.136,0.0,0.162,0.002
04/08/2023,07:50:43,0.137,0.0,0.165,0.003
04/08/2023,07:51:43,0.141,0.0,0.167,0.002
04/08/2023,07:52:44,0.144,0.0,0.169,0.002
04/08/2023,07:53:44,0.148,0.0,0.172,0.003
04/08/2023,07:54:43,0.153,0.0,0.174,0.002
04/08/2023,07:55:44,0.164,0.0,0.177,0.003
04/08/2023,07:56:44,0.177,0.0,0.18,0.003
04/08/2023,07:57:43,0.184,0.0,0.183,0.003
04/08/2023,07:58:43,0.189,0.0,0.186,0.003
04/08/2023,07:59:43,0.200,0.0,0.189,0.003
04/08/2023,08:00:43,0.207,0.0,0.193,0.004
04/08/2023,08:01:44,0.212,0.0,0.196,0.003
04/08/2023,08:02:43,0.235,1.0,0.2,0.004
04/08/2023,08:03:43,0.269,1.0,0.204,0.004
04/08/2023,08:04:43,0.294,1.0,0.209,0.005
04/08/2023,08:05:44,0.310,1.0,0.214,0.005
04/08/2023,08:06:43,0.324,1.0,0.219,0.005
04/08/2023,08:07:44,0.339,1.0,0.225,0.006
04/08/2023,08:08:43,0.343,1.0,0.23,0.005
04/08/2023,08:09:44,0.341,1.0,0.236,0.006
04/08/2023,08:10:44,0.342,1.0,0.242,0.006
04/08/2023,08:11:44,0.349,1.0,0.247,0.005
04/08/2023,08:12:43,0.354,1.0,0.253,0.006
04/08/2023,08:13:44,0.345,1.0,0.259,0.006
04/08/2023,08:14:44,0.325,1.0,0.265,0.006
04/08/2023,08:15:44,0.313,1.0,0.27,0.005
04/08/2023,08:16:43,0.299,1.0,0.275,0.005
04/08/2023,08:17:43,0.282,1.0,0.28,0.005
04/08/2023,08:18:44,0.271,1.0,0.285,0.005
04/08/2023,08:19:43,0.262,1.0,0.289,0.004
04/08/2023,08:20:43,0.250,1.0,0.293,0.004
04/08/2023,08:21:43,0.238,1.0,0.297,0.004
04/08/2023,08:22:43,0.233,1.0,0.301,0.004
04/08/2023,08:23:43,0.233,1.0,0.305,0.004
04/08/2023,08:24:43,0.238,1.0,0.309,0.004
04/08/2023,08:25:43,0.236,1.0,0.313,0.004
04/08/2023,08:26:43,0.231,1.0,0.317,0.004
04/08/2023,08:27:44,0.230,1.0,0.321,0.004
04/08/2023,08:28:44,0.237,1.0,0.325,0.004
04/08/2023,08:29:43,0.238,1.0,0.328,0.003
04/08/2023,08:30:44,0.250,1.0,0.333,0.005
04/08/2023,08:31:43,0.249,1.0,0.337,0.004
04/08/2023,08:32:43,0.231,1.0,0.341,0.004
04/08/2023,08:33:42,0.222,1.0,0.344,0.003
04/08/2023,08:34:41,0.227,1.0,0.348,0.004
04/08/2023,08:35:44,0.239,1.0,0.352,0.004
04/08/2023,08:36:44,0.242,1.0,0.356,0.004
04/08/2023,08:37:44,0.247,1.0,0.36,0.004
04/08/2023,08:38:43,0.255,1.0,0.364,0.004
04/08/2023,08:39:43,0.259,1.0,0.369,0.005
04/08/2023,08:40:44,0.263,1.0,0.373,0.004
04/08/2023,08:41:43,0.270,1.0,0.377,0.004
04/08/2023,08:42:44,0.277,1.0,0.382,0.005
04/08/2023,08:43:44,0.277,1.0,0.387,0.005
04/08/2023,08:44:44,0.279,1.0,0.391,0.004
04/08/2023,08:45:43,0.286,1.0,0.396,0.005
04/08/2023,08:46:43,0.292,1.0,0.401,0.005
04/08/2023,08:47:44,0.297,1.0,0.406,0.005
04/08/2023,08:48:43,0.296,1.0,0.411,0.005
04/08/2023,08:49:43,0.295,1.0,0.416,0.005
04/08/2023,08:50:44,0.286,1.0,0.42,0.004
04/08/2023,08:51:44,0.275,1.0,0.425,0.005
04/08/2023,08:52:44,0.272,1.0,0.43,0.005
04/08/2023,08:53:43,0.275,1.0,0.434,0.004
04/08/2023,08:54:43,0.278,1.0,0.439,0.005
04/08/2023,08:55:43,0.275,1.0,0.443,0.004
04/08/2023,08:56:43,0.281,1.0,0.448,0.005
04/08/2023,08:57:44,0.291,1.0,0.453,0.005
04/08/2023,08:58:43,0.303,1.0,0.458,0.005
04/08/2023,08:59:44,0.316,1.0,0.463,0.005
04/08/2023,09:00:43,0.320,1.0,0.468,0.005
04/08/2023,09:01:43,0.318,1.0,0.473,0.005
04/08/2023,09:02:44,0.324,1.0,0.479,0.006
04/08/2023,09:03:43,0.335,1.0,0.484,0.005
04/08/2023,09:04:44,0.341,1.0,0.49,0.006
04/08/2023,09:05:44,0.337,1.0,0.496,0.006
04/08/2023,09:06:43,0.332,1.0,0.501,0.005
04/08/2023,09:07:41,0.339,1.0,0.507,0.006
04/08/2023,09:08:41,0.346,1.0,0.512,0.005
04/08/2023,09:10:06,0.344,1.0,0.52,0.008
04/08/2023,09:10:43,0.339,1.0,0.524,0.004
04/08/2023,09:11:44,0.336,1.0,0.53,0.006
04/08/2023,09:12:43,0.330,1.0,0.535,0.005
04/08/2023,09:13:43,0.329,1.0,0.541,0.006
04/08/2023,09:14:43,0.348,1.0,0.546,0.005
04/08/2023,09:15:43,0.373,1.0,0.552,0.006
04/08/2023,09:16:42,0.393,1.0,0.559,0.007
04/08/2023,09:17:44,0.406,1.0,0.565,0.006
04/08/2023,09:18:43,0.413,1.0,0.572,0.007
04/08/2023,09:19:43,0.405,1.0,0.579,0.007
04/08/2023,09:20:43,0.395,1.0,0.586,0.007
04/08/2023,09:21:43,0.411,1.0,0.592,0.006
04/08/2023,09:22:44,0.426,1.0,0.599,0.007
04/08/2023,09:23:44,0.424,1.0,0.606,0.007
04/08/2023,09:24:44,0.411,1.0,0.613,0.007
04/08/2023,09:25:43,0.390,1.0,0.62,0.007
04/08/2023,09:26:43,0.381,1.0,0.627,0.007
04/08/2023,09:27:44,0.385,1.0,0.633,0.006
04/08/2023,09:28:43,0.402,1.0,0.639,0.006
04/08/2023,09:29:44,0.442,1.0,0.646,0.007
04/08/2023,09:30:44,0.492,1.0,0.654,0.008
04/08/2023,09:31:43,0.538,1.0,0.663,0.009
04/08/2023,09:32:43,0.575,1.0,0.672,0.009
04/08/2023,09:33:44,0.608,1.0,0.682,0.01
04/08/2023,09:34:43,0.629,1.0,0.692,0.01
04/08/2023,09:35:43,0.637,1.0,0.703,0.011
04/08/2023,09:36:44,0.637,1.0,0.714,0.011
04/08/2023,09:37:43,0.622,1.0,0.724,0.01
04/08/2023,09:38:43,0.608,1.0,0.734,0.01
04/08/2023,09:39:44,0.601,1.0,0.744,0.01
04/08/2023,09:40:43,0.600,1.0,0.754,0.01
04/08/2023,09:41:43,0.603,1.0,0.764,0.01
04/08/2023,09:42:43,0.592,1.0,0.774,0.01
04/08/2023,09:43:43,0.561,1.0,0.784,0.01
04/08/2023,09:44:44,0.556,1.0,0.793,0.009
04/08/2023,09:45:43,0.560,1.0,0.803,0.01
04/08/2023,09:46:43,0.566,1.0,0.812,0.009
04/08/2023,09:47:44,0.558,1.0,0.821,0.009
04/08/2023,09:48:43,0.561,1.0,0.83,0.009
04/08/2023,09:49:43,0.577,1.0,0.84,0.01
04/08/2023,09:50:44,0.584,1.0,0.85,0.01
04/08/2023,09:51:43,0.585,1.0,0.86,0.01
04/08/2023,09:52:43,0.581,1.0,0.869,0.009
04/08/2023,09:53:44,0.582,1.0,0.879,0.01
04/08/2023,09:54:43,0.606,1.0,0.888,0.009
04/08/2023,09:55:43,0.649,1.0,0.899,0.011
04/08/2023,09:56:44,0.692,2.0,0.91,0.011
04/08/2023,09:57:45,0.722,2.0,0.923,0.013
04/08/2023,09:58:44,0.795,2.0,0.935,0.012
04/08/2023,09:59:43,0.795,2.0,0.948,0.013
04/08/2023,10:00:44,0.753,2.0,0.961,0.013